Temp
75 68 66 70 73 74 74 71 71 77 82 79 76 75 76 81 83 84 81 82 79 79 84 84 83 83 83 76 74 73 71 69 70 70 69 69 67 68 69 70 70 68 69 70
68 63 71 76 76 74 73 70 70 77 82 79 77 75 80 84 82 85 84 80 80 79 81 82 81 81 80 76 74 73 72 70 71 71 72 72 70 69 70 70 69 69 69 68
63 68 74 72 70 69 69 68 70 70 77 79 76 72 77 82 87 87 84 81 81 80 79 80 79 79 79 76 73 73 72 71 71 72 73 72 71 70 69 68 68 69 69 69
69 76 73 68 66 69 63 75 73 71 67 60 74 59 74 79 81 85 85 83 82 81 81 81 79 79 78 76 75 74 73 71 72 72 72 69 70 69 69 68 68 68 68 68
67 70 70 68 70 72 65 72 70 69 65 64 67 62 69 77 75 81 84 85 83 82 80 79 80 80 81 78 76 74 74 72 72 71 72 70 69 70 70 69 67 67 67 67
71 79 76 74 77 77 77 71 69 67 63 52 63 61 63 70 76 81 82 79 85 83 82 82 82 81 80 78 76 75 73 73 72 71 70 70 68 69 69 68 67 67 67 67
67 69 76 78 71 76 73 64 52 49 49 49 65 60 65 75 81 81 79 78 77 84 81 81 80 80 79 78 76 75 74 73 72 70 69 70 69 68 68 68 68 66 66 66
58 55 70 76 72 67 68 65 52 43 47 53 67 55 63 80 85 86 83 83 81 84 82 81 82 81 80 78 77 75 75 74 73 70 70 70 71 71 71 70 70 69 68 67
58 58 73 75 78 75 67 60 69 57 59 53 60 65 75 81 83 85 82 83 82 83 82 82 82 81 80 79 77 75 75 76 75 72 71 69 70 71 71 70 70 69 68 70
64 54 69 73 76 76 71 73 56 58 43 43 55 59 62 70 73 82 83 82 83 85 82 82 83 81 82 81 79 76 76 77 77 73 71 71 70 71 71 70 68 68 68 68
68 60 60 69 65 64 65 62 63 62 58 48 47 55 73 74 73 67 72 83 83 83 82 82 84 83 83 82 80 76 76 77 76 74 72 70 70 70 71 70 70 69 68 68
65 59 52 59 71 75 71 65 63 51 50 57 55 55 77 77 72 72 72 82 84 83 83 84 84 82 82 81 80 77 76 76 77 76 74 71 71 70 70 69 70 69 68 68
60 54 46 52 62 69 64 67 68 64 61 54 50 55 77 78 78 74 75 83 84 83 84 84 83 82 82 81 80 78 76 76 78 78 75 71 70 70 69 69 70 69 69 69
55 50 47 43 51 58 57 64 66 64 54 55 56 62 70 74 75 72 69 79 83 83 84 83 82 81 81 81 80 80 77 77 77 78 75 71 70 70 70 69 69 69 69 68
52 43 51 54 58 59 58 64 65 62 63 56 61 64 69 74 76 78 80 82 82 83 84 83 82 79 80 79 79 80 79 78 78 77 75 72 71 71 70 69 69 69 69 68
54 42 45 46 55 59 56 61 65 67 67 66 66 65 76 79 79 79 79 82 81 82 84 84 83 82 81 80 79 80 79 78 78 76 76 75 72 71 70 69 68 67 67 67
39 37 40 38 53 55 49 57 65 65 70 68 60 68 76 74 76 77 76 79 80 81 82 83 83 82 82 81 80 79 79 79 77 76 77 76 74 71 70 70 69 67 66 66
38 35 35 32 45 34 56 68 70 67 69 72 72 74 76 77 79 79 79 78 76 83 82 80 79 78 79 80 80 79 79 79 77 77 77 77 75 72 71 69 68 66 66 65
47 36 31 30 38 47 56 65 65 63 64 74 73 76 78 80 80 78 78 76 73 77 78 78 77 77 78 78 79 80 80 78 77 76 76 77 75 73 71 68 65 63 61 60
49 45 33 33 30 33 53 68 74 74 57 75 76 75 76 78 67 74 83 82 79 76 77 76 76 76 75 75 77 77 78 78 76 76 76 76 74 72 70 65 61 61 60 58
39 39 30 31 31 40 60 70 76 53 57 75 77 76 75 72 76 78 79 79 79 78 77 76 75 73 74 75 76 76 75 74 76 77 76 74 72 69 66 61 60 59 58 56
37 36 35 34 30 30 68 68 60 66 74 76 76 75 73 76 76 75 76 74 75 75 75 76 73 72 74 76 76 74 72 74 74 73 72 71 69 69 66 60 58 58 56 54
38 43 39 43 45 61 65 59 66 70 72 74 75 77 78 73 72 72 72 73 73 73 74 75 73 72 73 74 73 69 70 72 71 70 69 68 68 67 66 60 57 55 54 51
54 54 41 41 50 48 59 64 67 72 72 76 73 75 74 70 71 70 71 72 73 73 71 71 69 67 66 69 69 69 70 72 71 68 67 66 64 63 64 64 60 56 53 51
50 50 47 41 45 49 56 61 67 69 68 69 72 71 69 70 69 70 70 71 71 70 70 70 67 66 65 67 66 67 68 69 67 66 66 64 63 61 61 62 60 59 58 54
53 49 39 42 47 47 50 57 61 64 64 67 66 65 67 67 66 67 66 68 68 66 67 66 66 65 66 65 64 63 64 65 63 63 63 58 60 60 60 59 58 48 47 41
MSLP
1006.12 1005.73 1004.41 1004.76 1004.71 1004.28 1003.64 1002.95 1001.89 1001.18 1000.81 1000.59 1000.81 1001.14 1001.95 1001.87 1001.04 1001.49 1002.33 1003.51 1005.05 1006.17 1007.38 1008.43 1009.50 1010.42 1011.48 1013.10 1014.48 1015.66 1016.60 1017.58 1018.27 1018.82 1019.21 1019.47 1020.08 1020.32 1020.55 1020.84 1021.25 1021.90 1022.34 1022.67
1006.33 1004.97 1005.27 1005.03 1004.61 1004.07 1003.59 1002.76 1001.84 1001.11 1000.14 1000.01 1000.05 1000.80 1000.75 1000.15 1000.31 1001.21 1001.79 1002.48 1004.32 1005.42 1006.55 1007.85 1009.09 1010.06 1011.10 1012.53 1013.95 1015.24 1016.12 1017.11 1017.79 1018.26 1018.59 1018.90 1019.50 1020.03 1020.21 1020.58 1021.10 1021.63 1022.17 1022.56
1005.27 1004.84 1005.18 1005.13 1004.69 1004.05 1003.45 1002.84 1002.23 1001.59 1000.69 1000.28 1000.02 1000.10 1000.23 999.99 999.10 999.75 1000.92 1002.18 1004.94 1005.08 1005.62 1007.09 1008.44 1009.50 1010.65 1011.92 1013.18 1014.49 1015.44 1016.42 1017.21 1017.57 1018.05 1018.41 1018.93 1019.59 1020.05 1020.42 1020.98 1021.35 1021.88 1022.35
1004.33 1004.32 1004.13 1004.33 1004.03 1004.21 1003.27 1003.11 1002.84 1002.29 1002.03 1001.27 1001.25 999.97 999.09 998.83 998.71 998.75 999.43 1000.85 1002.40 1004.16 1005.13 1006.47 1007.73 1008.79 1009.94 1011.26 1012.61 1013.82 1014.83 1015.79 1016.63 1016.95 1017.38 1017.83 1018.34 1018.83 1019.38 1019.93 1020.50 1021.06 1021.62 1022.13
1002.64 1003.38 1003.14 1003.10 1002.64 1003.43 1003.09 1003.84 1003.59 1003.66 1003.19 1002.79 1001.25 1000.50 999.32 999.21 998.50 997.89 998.36 999.59 1001.26 1002.51 1003.70 1004.98 1006.36 1007.78 1009.10 1010.57 1011.84 1013.02 1014.13 1015.08 1015.88 1016.39 1016.76 1017.32 1017.83 1018.32 1018.86 1019.49 1020.06 1020.75 1021.35 1021.79
1002.43 1002.94 1002.43 1001.88 1002.01 1002.09 1002.52 1002.99 1003.48 1003.96 1003.86 1002.95 1001.40 1001.32 999.07 998.74 997.70 997.02 998.06 998.99 999.82 1001.77 1003.16 1004.69 1005.95 1007.29 1008.41 1009.74 1011.00 1012.25 1013.32 1014.21 1015.02 1015.76 1016.23 1016.64 1017.28 1017.73 1018.33 1018.97 1019.68 1020.32 1020.95 1021.39
1002.28 1002.42 1001.94 1001.63 1001.12 1001.08 1001.71 1002.30 1002.84 1003.36 1003.07 1001.33 1001.83 1001.29 998.44 998.32 997.11 996.85 998.40 998.79 999.60 1000.60 1002.00 1003.70 1004.99 1006.08 1007.40 1008.59 1009.92 1011.19 1012.32 1013.14 1014.07 1014.93 1015.56 1015.98 1016.59 1017.16 1017.61 1018.21 1018.94 1019.73 1020.29 1020.88
1002.19 1001.56 1001.15 1000.97 1000.82 1000.82 1000.98 1001.50 1002.23 1001.72 1002.10 1001.03 1000.93 999.83 997.53 997.54 996.65 996.53 997.72 998.44 998.26 1000.37 1001.26 1002.57 1003.81 1005.05 1006.27 1007.54 1008.88 1010.10 1011.07 1012.03 1012.96 1013.94 1014.77 1015.47 1015.85 1016.47 1016.86 1017.30 1017.92 1018.70 1019.38 1019.92
1002.13 1000.98 1000.98 1000.21 999.92 1000.18 1000.23 1000.77 1000.95 1002.02 1002.16 1001.28 999.95 999.07 997.34 996.54 995.81 995.72 996.34 997.50 997.63 998.91 1000.28 1001.53 1002.77 1004.09 1005.31 1006.50 1007.67 1008.87 1010.00 1011.01 1011.90 1012.91 1013.95 1014.80 1015.27 1015.71 1016.20 1016.47 1017.04 1017.74 1018.42 1019.00
1002.56 1001.29 1000.58 1000.04 999.70 998.95 998.74 999.93 1001.10 1001.30 1001.17 1000.64 999.35 998.19 996.29 996.28 996.04 995.56 995.64 995.97 996.83 997.90 999.37 1000.63 1001.74 1003.01 1004.25 1005.45 1006.78 1008.12 1009.08 1009.90 1010.73 1011.87 1012.93 1013.82 1014.71 1015.13 1015.53 1016.06 1016.35 1016.91 1017.59 1018.10
1003.24 1002.43 1000.56 1000.45 999.51 998.67 998.63 998.55 999.64 1000.55 1000.54 999.96 998.71 997.23 996.51 995.75 995.87 996.97 996.85 995.61 996.22 997.09 998.54 999.80 1000.86 1002.10 1003.35 1004.58 1005.90 1007.24 1008.29 1009.04 1009.83 1010.71 1011.84 1012.83 1013.67 1014.39 1014.95 1015.22 1015.68 1016.20 1016.79 1017.47
1004.54 1003.18 1001.57 1000.21 999.44 998.75 998.16 998.11 998.49 999.52 999.73 999.03 998.64 995.97 996.46 995.66 996.29 996.74 997.43 995.94 995.66 996.42 997.54 999.00 1000.16 1001.35 1002.58 1003.78 1004.99 1006.25 1007.40 1008.19 1008.81 1009.58 1010.69 1011.74 1012.65 1013.40 1013.97 1014.47 1014.87 1015.48 1016.12 1016.75
1006.24 1004.52 1002.62 1000.86 999.92 998.42 997.57 997.15 997.25 997.93 998.66 998.48 997.64 994.82 996.17 995.70 995.29 996.43 996.36 994.75 994.90 995.67 996.71 998.00 999.40 1000.64 1001.83 1003.08 1004.23 1005.39 1006.44 1007.31 1008.16 1008.81 1009.71 1010.78 1011.58 1012.28 1012.93 1013.61 1014.28 1014.82 1015.35 1016.01
1008.11 1006.52 1004.86 1002.56 1000.49 1000.05 998.20 996.77 996.63 996.49 996.75 996.67 996.51 995.34 995.47 994.93 994.87 996.02 996.16 995.62 994.38 995.20 996.20 997.37 998.68 1000.05 1001.21 1002.49 1003.48 1004.44 1005.57 1006.53 1007.43 1008.04 1008.82 1009.69 1010.47 1011.20 1011.99 1012.80 1013.47 1014.01 1014.57 1015.21
1009.20 1007.05 1004.88 1003.06 1001.39 1000.22 998.53 996.33 995.40 994.84 995.31 994.89 994.51 994.60 994.93 994.24 993.83 994.05 994.09 994.13 994.44 994.88 996.01 996.89 998.15 999.54 1000.73 1002.06 1003.05 1003.84 1004.73 1005.75 1006.62 1007.29 1007.94 1008.68 1009.81 1010.64 1011.37 1012.03 1012.70 1013.37 1013.83 1014.42
1008.33 1007.33 1005.92 1003.47 1001.53 999.62 997.65 996.22 994.22 993.55 993.71 993.62 993.66 993.68 994.05 993.57 993.29 993.19 993.66 994.17 994.01 994.60 995.58 996.55 997.85 999.23 1000.37 1001.45 1002.38 1003.16 1003.85 1004.85 1005.81 1006.55 1007.13 1008.08 1009.09 1009.92 1010.66 1011.36 1012.04 1012.69 1013.22 1013.79
1010.21 1008.88 1007.20 1003.54 1001.29 999.15 995.81 994.65 993.04 992.62 991.89 992.11 991.94 992.60 993.13 993.04 992.63 992.78 993.09 993.88 994.13 994.26 994.99 996.13 997.39 998.60 999.71 1000.57 1001.49 1002.41 1003.29 1004.19 1005.05 1005.87 1006.60 1007.29 1008.20 1009.14 1009.95 1010.69 1011.37 1012.01 1012.64 1013.24
1009.67 1009.30 1008.45 1005.29 1001.59 996.22 995.03 993.96 992.44 991.42 991.48 991.45 991.34 991.56 991.87 991.96 992.20 992.49 992.77 994.27 995.04 994.30 995.03 996.08 997.40 998.59 999.57 1000.25 1001.03 1001.95 1002.86 1003.64 1004.50 1005.27 1006.01 1006.76 1007.49 1008.43 1009.35 1010.15 1010.85 1011.52 1012.17 1012.77
1007.93 1008.54 1007.44 1005.12 1000.87 997.87 994.23 992.34 991.57 990.84 989.82 990.12 989.90 990.24 990.82 991.09 991.49 991.72 993.10 995.17 995.67 996.58 995.00 996.31 997.79 999.08 1000.15 1000.83 1000.98 1001.38 1002.14 1003.11 1004.00 1004.85 1005.57 1006.28 1007.04 1007.84 1008.74 1009.60 1010.38 1011.11 1011.83 1012.47
1004.99 1006.24 1007.13 1004.64 1001.08 996.58 994.01 992.06 991.33 990.40 988.47 989.07 989.20 989.42 989.84 990.38 990.67 990.86 991.87 993.07 994.32 997.88 996.46 997.43 998.50 999.52 1000.43 1001.16 1001.38 1001.55 1001.91 1002.60 1003.61 1004.54 1005.36 1006.04 1006.74 1007.56 1008.37 1009.20 1009.98 1010.78 1011.49 1012.31
1002.66 1003.45 1004.40 1003.84 1001.37 997.79 993.55 991.91 990.51 988.65 988.47 988.51 988.39 988.67 989.20 989.73 990.30 991.19 992.12 993.17 994.74 996.28 997.35 998.42 999.04 1000.06 1000.96 1001.47 1001.57 1001.67 1002.23 1002.82 1003.67 1004.64 1005.46 1006.19 1006.90 1007.68 1008.51 1009.40 1010.11 1010.84 1011.56 1012.23
1001.05 1001.34 1001.77 1001.42 1000.69 998.01 992.93 990.89 989.20 988.71 987.89 987.80 987.98 988.30 988.91 989.62 990.43 991.67 992.99 994.11 995.34 996.57 997.80 998.82 999.85 1000.84 1001.47 1001.62 1001.81 1002.29 1002.92 1003.49 1004.36 1005.30 1006.04 1006.77 1007.40 1008.07 1008.83 1009.76 1010.52 1011.10 1011.73 1012.40
998.41 998.21 999.80 999.57 997.62 994.79 992.49 992.22 990.45 989.05 987.11 988.36 988.11 988.24 988.50 989.94 991.19 992.62 993.95 995.21 996.32 997.51 998.85 999.91 1000.86 1001.54 1001.93 1002.22 1002.71 1003.29 1003.94 1004.37 1005.30 1006.05 1006.69 1007.26 1007.87 1008.43 1008.98 1009.83 1010.72 1011.35 1011.89 1012.48
996.60 996.94 998.76 999.93 996.84 996.16 995.02 992.97 991.17 990.38 989.16 989.12 989.05 988.56 989.03 990.46 992.06 993.49 994.93 996.01 997.21 998.63 1000.07 1001.25 1002.29 1002.99 1003.29 1003.66 1004.08 1004.47 1004.64 1005.29 1005.92 1006.57 1007.26 1007.80 1008.25 1008.71 1009.19 1009.55 1010.38 1011.13 1011.93 1012.50
997.14 997.04 997.09 997.82 997.56 997.71 995.18 994.45 992.91 990.99 990.66 990.79 991.19 991.30 991.95 992.47 993.72 994.86 996.13 997.24 998.39 999.93 1001.30 1002.39 1003.30 1004.00 1004.54 1004.99 1005.25 1005.56 1005.92 1006.24 1006.80 1007.23 1007.72 1008.14 1008.63 1009.07 1009.38 1009.56 1009.86 1010.49 1011.13 1011.76
996.99 996.01 996.61 996.77 996.70 997.33 997.25 996.37 994.96 993.92 993.78 993.24 993.74 994.16 994.96 995.84 996.81 997.65 998.50 999.36 1000.37 1001.78 1002.88 1003.71 1004.36 1004.79 1005.19 1005.74 1006.36 1006.88 1007.23 1007.51 1007.87 1007.86 1008.14 1008.72 1008.93 1009.26 1009.44 1009.58 1009.81 1010.05 1010.52 1011.07
Wind_Speed
13 13 19 22 22 24 21 23 24 22 21 21 15 15 16 28 8 11 17 18 17 18 18 19 17 17 17 19 18 16 15 15 10 10 9 7 8 5 4 5 8 8 5 6
14 21 19 16 19 24 25 27 25 24 23 15 18 20 22 19 21 21 16 20 19 19 19 19 17 17 16 20 19 17 16 17 12 10 8 7 8 5 4 4 8 8 6 7
19 16 17 21 22 23 22 21 21 26 24 16 14 23 21 16 12 14 19 22 20 20 20 21 20 18 17 20 20 18 17 18 15 12 8 7 7 7 6 5 7 8 7 7
22 21 22 23 22 20 21 23 24 20 21 16 16 18 20 15 18 18 15 21 24 21 19 20 21 20 19 19 19 19 17 18 16 13 11 10 10 8 7 6 6 8 7 7
24 22 23 24 24 22 21 18 19 20 19 23 27 15 13 16 20 21 17 16 21 23 24 25 24 22 20 20 19 18 18 18 17 13 12 10 9 7 7 6 8 8 7 7
27 23 24 25 23 24 21 21 19 18 15 18 23 20 19 17 24 11 14 13 17 22 23 21 21 21 20 18 18 18 19 18 17 16 12 13 11 9 8 8 7 7 8 7
26 25 25 24 24 22 21 18 11 15 16 21 17 20 21 22 22 7 11 13 13 21 24 23 24 22 21 21 21 19 21 20 19 18 16 11 14 10 10 11 9 10 8 7
19 19 25 24 24 23 18 16 13 27 16 19 19 22 26 24 25 8 17 16 19 18 22 24 24 22 22 22 22 21 22 21 21 19 18 13 14 10 8 12 9 9 9 9
19 27 25 28 23 26 21 21 21 19 20 16 15 21 25 21 20 18 18 16 15 24 24 25 23 21 21 21 22 22 21 20 20 20 17 16 11 13 13 8 10 9 8 9
26 24 24 24 25 25 28 19 17 15 22 23 21 23 15 18 21 17 14 18 13 15 22 22 20 21 20 20 20 19 19 20 17 19 17 15 16 14 11 12 10 11 10 9
22 22 26 25 24 25 19 21 15 16 16 18 19 20 18 18 12 18 29 10 14 15 19 19 19 20 18 18 19 18 18 18 18 17 18 17 16 16 14 11 10 12 9 11
26 24 19 26 25 26 27 23 25 14 24 14 17 23 15 16 12 20 18 20 14 17 19 19 18 19 18 18 18 19 18 17 16 16 17 18 16 16 16 15 12 11 12 10
22 16 21 24 23 25 27 27 22 23 19 23 17 18 15 21 20 22 12 15 14 21 22 19 19 19 18 17 17 18 18 17 15 16 16 16 17 17 17 15 13 13 13 13
21 24 27 19 22 26 28 29 27 23 16 20 23 20 18 19 19 6 8 27 10 19 21 19 17 18 17 16 16 17 17 16 16 15 16 17 18 17 15 14 15 13 12 14
23 29 28 28 32 31 37 34 30 27 26 23 22 20 20 21 17 14 10 13 11 14 15 17 17 16 16 15 14 14 15 16 16 15 16 16 14 14 13 14 14 14 12 14
25 28 20 30 31 32 36 40 33 29 26 25 28 22 21 22 17 11 14 11 14 15 16 18 17 16 16 17 16 14 13 15 15 14 14 13 14 14 14 13 13 13 13 12
19 4 13 24 30 33 36 35 31 29 23 24 26 22 20 23 22 14 12 12 14 17 18 17 19 18 17 16 15 14 12 12 13 13 12 12 14 15 13 13 13 14 13 11
25 17 13 9 24 40 20 31 28 25 27 27 25 21 22 23 23 13 14 18 22 16 18 14 10 7 5 8 13 12 13 11 11 11 11 11 11 13 13 12 12 10 10 11
23 15 6 8 20 22 30 29 28 29 27 27 21 22 21 19 21 20 19 13 9 29 16 13 10 8 6 5 6 10 14 12 11 10 9 10 9 9 10 11 8 6 6 6
25 23 14 10 10 28 24 25 28 26 25 21 23 17 18 20 14 13 12 18 17 16 8 12 11 7 6 6 6 9 9 11 10 9 7 6 6 6 6 6 7 5 5 5
17 20 20 18 11 12 21 28 28 35 15 21 19 21 13 15 14 9 12 14 16 14 14 12 11 9 7 5 6 8 8 8 8 7 5 5 6 6 6 6 4 6 5 5
21 17 15 12 10 19 20 15 32 17 15 15 12 8 11 7 9 19 16 16 16 15 14 14 11 9 8 8 8 11 11 10 9 7 6 6 5 4 4 7 4 5 5 5
24 14 12 13 15 18 10 9 11 12 10 10 7 7 16 17 20 19 17 16 15 16 13 12 11 10 8 10 11 12 11 11 9 8 7 6 5 5 4 8 6 4 4 4
21 15 9 10 5 17 12 12 6 6 1 1 1 6 20 23 21 20 17 16 15 15 14 14 13 11 11 12 12 10 10 9 9 9 7 6 5 5 4 2 6 5 4 4
12 13 12 5 16 13 16 9 11 8 18 16 15 17 17 20 19 18 17 15 15 15 14 13 12 12 12 12 12 11 9 8 7 6 6 4 5 4 0 1 4 5 7 7
11 7 7 6 13 7 6 11 13 11 9 16 16 18 17 14 14 16 15 14 14 13 12 11 11 11 11 12 12 11 9 8 6 4 5 4 3 2 2 1 3 6 7 11
Wind_Direction
239 231 224 227 229 250 248 257 253 245 232 246 252 207 227 274 224 202 171 166 171 175 180 166 179 163 165 150 155 168 163 164 178 167 183 178 165 207 164 168 150 157 185 166
229 231 248 256 251 248 249 259 260 271 271 240 202 247 235 224 186 203 209 161 174 174 175 166 173 170 168 157 160 170 171 168 184 171 191 177 160 202 170 176 143 155 185 168
220 238 220 246 256 246 262 268 263 270 282 290 259 228 250 250 244 229 176 157 198 185 176 168 172 178 167 165 165 174 177 172 185 177 191 175 170 181 175 183 153 164 174 172
245 230 242 220 238 260 263 246 266 292 299 286 243 265 247 249 252 239 188 168 172 176 177 170 174 180 180 170 166 174 180 175 187 191 187 187 180 183 178 179 160 166 177 180
253 238 239 242 236 214 251 272 287 293 246 273 271 273 262 265 259 241 205 173 171 175 180 178 178 181 179 168 170 175 180 177 184 198 187 183 187 189 165 179 165 164 178 182
263 252 256 245 241 243 248 232 236 253 261 259 254 262 264 255 256 234 156 169 182 178 177 183 176 177 179 171 171 176 181 182 183 195 206 185 189 181 175 176 168 176 176 184
260 258 258 259 267 250 235 237 242 241 230 247 232 255 259 260 258 206 223 195 203 207 172 178 178 180 179 179 176 177 182 187 184 187 198 197 183 206 186 176 176 174 178 187
270 267 245 242 250 255 237 242 224 241 242 250 237 226 251 244 252 234 161 215 188 176 174 177 181 182 181 180 178 181 185 190 184 183 193 206 187 197 213 178 178 182 189 182
266 259 263 276 251 233 241 242 243 254 255 270 262 285 242 259 248 235 173 192 200 169 172 177 180 183 181 180 182 184 187 193 187 185 187 197 200 196 203 204 179 181 183 186
281 285 278 265 273 271 223 225 244 241 242 246 251 252 252 216 269 246 227 181 175 167 168 176 181 179 182 181 181 183 190 193 193 184 186 190 203 199 199 206 187 181 186 189
280 283 281 279 262 261 269 216 219 253 230 241 253 249 258 265 184 315 296 186 180 176 167 172 182 177 180 177 177 182 188 193 196 185 184 188 192 202 206 200 200 193 181 189
292 282 276 278 276 265 258 261 209 222 245 240 244 252 258 285 169 193 233 256 187 170 166 174 183 171 176 176 176 181 186 197 198 193 184 189 192 195 201 209 200 186 195 186
296 290 280 280 275 259 252 254 232 216 231 251 232 255 223 259 277 193 243 217 191 173 169 174 177 170 174 177 179 178 185 194 202 191 187 188 194 197 201 200 207 196 192 195
292 277 270 265 270 283 277 246 248 221 224 238 245 259 231 246 248 169 212 258 188 166 169 174 170 165 172 181 181 180 184 190 198 193 194 193 196 200 199 198 201 202 195 196
273 272 269 272 265 261 262 254 242 234 222 237 239 239 240 257 241 213 232 182 155 156 169 167 165 162 169 176 182 190 180 186 192 200 195 194 193 197 201 199 199 204 205 197
254 267 298 268 261 262 254 265 241 243 214 235 241 235 243 246 261 198 205 213 176 171 180 166 162 168 176 180 184 185 183 183 188 199 201 188 184 194 201 200 200 203 209 199
292 278 275 259 251 247 242 249 241 238 231 228 237 238 222 248 255 251 189 201 195 180 175 171 173 175 180 177 175 179 181 173 186 193 197 191 184 190 198 203 203 205 208 205
259 250 260 273 259 241 235 246 249 249 240 226 230 229 244 222 247 232 201 208 274 192 166 138 123 122 142 158 166 167 175 180 181 190 194 198 185 187 190 196 208 206 203 208
233 236 250 248 245 250 243 233 239 251 243 237 244 218 228 238 227 240 187 188 210 272 128 125 120 129 149 188 172 171 171 174 178 188 192 192 189 184 185 194 192 182 175 180
220 208 224 264 277 239 235 231 236 245 245 238 241 240 219 229 231 234 205 130 126 132 123 120 115 117 141 176 182 170 174 163 170 173 187 182 166 175 185 164 156 141 140 150
220 198 216 237 252 276 266 242 229 234 234 230 230 234 227 216 223 167 129 119 123 120 124 126 133 133 144 176 180 152 130 132 135 141 140 119 104 99 96 108 120 133 139 150
246 203 217 236 243 251 235 262 232 253 224 221 223 243 234 213 109 128 126 124 129 130 130 136 123 133 156 157 134 123 105 94 94 106 118 118 122 139 132 115 113 124 140 156
243 196 206 204 207 251 38 335 351 321 77 319 253 247 222 135 126 130 131 134 130 126 131 127 123 116 114 98 100 103 106 111 114 122 122 119 116 105 106 126 124 119 134 141
248 175 174 270 296 347 336 336 330 309 154 297 55 90 130 127 129 125 126 132 135 127 118 118 115 102 81 84 87 82 89 116 126 120 113 105 114 124 132 133 150 152 173 170
295 176 195 202 280 318 311 330 349 29 66 67 75 81 98 112 118 123 122 116 108 110 117 116 117 116 107 97 85 75 61 73 86 85 105 106 123 144 127 225 175 174 187 186
263 249 184 219 188 194 261 301 343 61 94 90 84 87 88 91 99 100 96 97 98 95 99 104 104 106 106 103 92 77 67 63 49 53 57 63 44 23 345 279 215 213 171 155